{"data":{"norad_id":65648,"epoch":"2026-05-25T04:19:19.999776Z","epoch_age_seconds":52784,"freshness":"FRESH","line1":"1 65648U 25210AC  26145.18009259  .00038232  00000+0  11363-2 0  9994","line2":"2 65648  53.1602 310.9662 0000937  92.3500 267.7610 15.34416061 39454","mean_motion":15.34416061,"eccentricity":9.37e-5,"inclination_deg":53.1602,"raan_deg":310.9662,"arg_perigee_deg":92.35,"mean_anomaly_deg":267.761,"bstar":0.0011363,"rev_number":3945,"period_min":93.846775760515,"perigee_km":462.01452168917,"apogee_km":463.29648620441,"semimajor_km":6840.7925039468,"source":"CELESTRAK","updated_at":"2026-05-25T13:38:20.886874Z"}}